Location: Harburg
(48.7667°N, 10.6667°E)
Time: 04:20:25
(UTC+00:00)

IGS 5A - Pass Details

Date: 18 September 2020
Orbit: 583 x 588 km, 97.6° (Epoch: 09 October)

Event Time Altitude Azimuth Distance (km) Brightness Sun altitude
Exits shadow 19:37:08 33° 44° (NE) 1,002 4.5 -21.9°
Drops below altitude 10° 19:40:11 10° 3° (N) 1,918 6.4 -22.3°
Sets 19:42:28 0° 354° (N) 2,823 7.5 -22.6°
